PROGRESS-MS 33

Last updated on Sun Apr 12 2026 00:02:08 GMT+0000 (Coordinated Universal Time)

1 68319U 26058A 26101.48935997 .00006038 00000+0 11816-3 0 9998 2 68319 51.6326 270.1822 0006432 299.5706 60.4641 15.48873216 2948
UTC large
Height (km)
Speed (km/s)
/
Latitude / Longitude
Inclination (degrees)
Orbital Period (minutes)
Azimuth
Elevation
Range (km)
Doppler Factor

Next 0 passes for location: London (51.5072 / 0.1276)

Sorry there are no passes over London.
PROGRESS-MS 33